Total_Precipitation_Accumulation
0.00 0.00 0.00 0.00 0.00 0.00 0.00 0.00 0.00 0.00 0.00 0.00 0.00 0.00 0.00 0.00 0.00 0.00 0.00 0.00 0.00 0.00 0.00 0.00 0.00 0.01 0.02 0.02 0.02 0.01 0.01 0.01 0.00 0.01 0.01 0.01 0.02 0.02 0.01 0.00 0.00 0.00
0.00 0.00 0.00 0.00 0.00 0.00 0.00 0.00 0.00 0.00 0.00 0.00 0.00 0.00 0.00 0.00 0.00 0.00 0.00 0.00 0.00 0.00 0.00 0.00 0.01 0.00 0.01 0.01 0.01 0.01 0.02 0.01 0.01 0.00 0.01 0.01 0.01 0.02 0.01 0.00 0.01 0.00
0.00 0.00 0.00 0.00 0.00 0.00 0.00 0.00 0.00 0.00 0.00 0.00 0.00 0.00 0.00 0.00 0.00 0.00 0.00 0.00 0.00 0.01 0.00 0.00 0.00 0.00 0.00 0.00 0.01 0.01 0.01 0.01 0.00 0.00 0.00 0.01 0.01 0.02 0.02 0.01 0.01 0.01
0.00 0.00 0.00 0.00 0.00 0.00 0.00 0.00 0.00 0.00 0.00 0.00 0.00 0.00 0.00 0.00 0.00 0.00 0.00 0.00 0.00 0.00 0.00 0.00 0.00 0.01 0.00 0.00 0.00 0.00 0.00 0.00 0.00 0.00 0.00 0.01 0.01 0.01 0.01 0.01 0.00 0.00
0.00 0.00 0.00 0.00 0.00 0.00 0.00 0.00 0.00 0.00 0.00 0.00 0.00 0.00 0.00 0.00 0.00 0.00 0.00 0.00 0.00 0.00 0.00 0.00 0.00 0.01 0.00 0.01 0.00 0.00 0.00 0.01 0.00 0.00 0.00 0.00 0.00 0.00 0.00 0.00 0.00 0.00
0.00 0.00 0.00 0.00 0.00 0.00 0.00 0.00 0.00 0.00 0.00 0.00 0.00 0.00 0.00 0.00 0.00 0.00 0.00 0.00 0.00 0.00 0.00 0.00 0.00 0.00 0.00 0.00 0.00 0.00 0.00 0.00 0.00 0.00 0.00 0.00 0.00 0.01 0.00 0.00 0.00 0.00
0.00 0.00 0.00 0.00 0.00 0.00 0.00 0.00 0.00 0.00 0.01 0.00 0.01 0.00 0.00 0.00 0.00 0.00 0.00 0.00 0.00 0.00 0.00 0.00 0.00 0.00 0.00 0.00 0.00 0.00 0.00 0.00 0.00 0.00 0.00 0.00 0.00 0.00 0.00 0.00 0.00 0.00
0.00 0.00 0.00 0.00 0.00 0.00 0.01 0.01 0.01 0.00 0.00 0.00 0.00 0.00 0.00 0.00 0.00 0.00 0.00 0.00 0.00 0.00 0.00 0.00 0.00 0.00 0.00 0.00 0.00 0.00 0.00 0.00 0.00 0.00 0.00 0.00 0.00 0.00 0.00 0.00 0.00 0.00
0.00 0.00 0.00 0.00 0.00 0.00 0.01 0.01 0.00 0.01 0.00 0.00 0.00 0.00 0.00 0.00 0.00 0.00 0.00 0.00 0.00 0.00 0.00 0.00 0.01 0.01 0.00 0.00 0.00 0.00 0.00 0.00 0.00 0.00 0.00 0.00 0.00 0.00 0.00 0.00 0.00 0.00
0.00 0.00 0.00 0.00 0.00 0.03 0.03 0.10 0.04 0.01 0.01 0.00 0.00 0.00 0.00 0.00 0.00 0.00 0.00 0.00 0.01 0.02 0.03 0.03 0.02 0.02 0.02 0.00 0.00 0.00 0.00 0.00 0.00 0.00 0.00 0.00 0.00 0.00 0.00 0.00 0.00 0.00
0.07 0.03 0.00 0.01 0.03 0.08 0.05 0.05 0.04 0.05 0.03 0.01 0.00 0.01 0.03 0.06 0.04 0.04 0.08 0.11 0.12 0.09 0.07 0.06 0.04 0.02 0.00 0.00 0.00 0.00 0.00 0.00 0.00 0.00 0.00 0.00 0.00 0.00 0.00 0.00 0.00 0.00
0.03 0.01 0.01 0.02 0.05 0.03 0.06 0.02 0.01 0.00 0.00 0.01 0.02 0.05 0.06 0.07 0.10 0.16 0.19 0.18 0.14 0.11 0.08 0.06 0.02 0.00 0.00 0.00 0.00 0.00 0.00 0.00 0.00 0.00 0.00 0.00 0.00 0.00 0.00 0.00 0.00 0.00
0.04 0.02 0.03 0.05 0.03 0.05 0.16 0.22 0.12 0.01 0.02 0.03 0.04 0.11 0.22 0.20 0.24 0.23 0.20 0.17 0.13 0.10 0.05 0.01 0.00 0.00 0.00 0.00 0.00 0.00 0.00 0.00 0.00 0.00 0.00 0.00 0.00 0.00 0.00 0.00 0.00 0.01
0.00 0.05 0.23 0.15 0.22 0.17 0.21 0.12 0.23 0.14 0.12 0.15 0.29 0.30 0.29 0.31 0.28 0.26 0.22 0.15 0.07 0.02 0.00 0.01 0.00 0.00 0.00 0.00 0.00 0.00 0.00 0.00 0.00 0.00 0.00 0.00 0.01 0.01 0.00 0.00 0.00 0.00
0.00 0.03 0.16 0.38 0.12 0.41 0.32 0.21 0.35 0.29 0.35 0.37 0.26 0.38 0.41 0.33 0.22 0.14 0.07 0.04 0.02 0.01 0.00 0.00 0.00 0.00 0.00 0.00 0.00 0.00 0.00 0.00 0.00 0.00 0.00 0.00 0.02 0.03 0.01 0.01 0.00 0.00
0.00 0.00 0.04 0.16 0.15 1.39 1.81 0.56 0.60 0.70 0.67 0.53 0.36 0.35 0.25 0.16 0.11 0.07 0.05 0.03 0.01 0.01 0.01 0.00 0.00 0.00 0.00 0.00 0.00 0.00 0.00 0.00 0.00 0.00 0.00 0.00 0.00 0.00 0.01 0.00 0.00 0.02
0.13 0.00 0.00 0.00 0.60 0.96 1.15 1.32 0.79 0.37 0.28 0.29 0.25 0.16 0.13 0.13 0.11 0.10 0.07 0.04 0.02 0.01 0.01 0.00 0.00 0.00 0.00 0.00 0.00 0.00 0.00 0.00 0.00 0.00 0.00 0.00 0.01 0.00 0.01 0.00 0.00 0.00
0.26 0.11 0.01 0.06 0.44 1.07 1.09 0.96 0.63 0.19 0.16 0.09 0.08 0.08 0.10 0.10 0.12 0.12 0.09 0.06 0.04 0.02 0.01 0.00 0.00 0.00 0.00 0.00 0.00 0.00 0.00 0.00 0.00 0.00 0.00 0.00 0.00 0.00 0.00 0.01 0.01 0.04
0.27 0.03 0.05 0.19 0.98 1.22 0.79 1.08 0.38 0.43 0.27 0.13 0.10 0.19 0.05 0.09 0.13 0.14 0.12 0.09 0.05 0.03 0.02 0.01 0.01 0.00 0.00 0.00 0.00 0.00 0.00 0.00 0.00 0.00 0.00 0.00 0.00 0.00 0.00 0.01 0.06 0.08
0.14 0.03 0.09 0.98 1.21 1.60 0.99 0.11 0.15 0.07 0.22 0.37 0.26 0.12 0.18 0.13 0.14 0.15 0.13 0.11 0.08 0.06 0.05 0.03 0.02 0.01 0.01 0.00 0.00 0.01 0.01 0.01 0.00 0.01 0.00 0.01 0.01 0.02 0.01 0.00 0.02 0.05
0.01 0.00 0.31 0.77 1.12 0.96 0.38 0.22 0.02 0.14 0.17 0.32 0.17 0.09 0.12 0.06 0.06 0.06 0.06 0.06 0.05 0.05 0.05 0.05 0.04 0.02 0.01 0.01 0.00 0.00 0.00 0.00 0.00 0.01 0.02 0.02 0.02 0.02 0.02 0.02 0.14 0.47
0.02 0.02 0.04 0.77 0.55 0.23 0.11 0.02 0.05 0.19 0.13 0.12 0.12 0.11 0.05 0.03 0.04 0.04 0.08 0.21 0.15 0.15 0.12 0.08 0.05 0.03 0.01 0.01 0.01 0.02 0.01 0.02 0.02 0.01 0.02 0.01 0.02 0.01 0.02 0.07 0.12 0.37
0.02 0.02 0.08 0.01 0.01 0.04 0.01 0.00 0.02 0.10 0.03 0.05 0.05 0.03 0.01 0.01 0.02 0.04 0.03 0.09 0.08 0.03 0.03 0.03 0.05 0.05 0.05 0.04 0.04 0.02 0.02 0.02 0.01 0.01 0.04 0.03 0.05 0.08 0.04 0.12 0.24 0.20
0.02 0.01 0.01 0.01 0.00 0.01 0.00 0.01 0.01 0.03 0.04 0.04 0.03 0.01 0.01 0.00 0.01 0.02 0.04 0.03 0.02 0.02 0.02 0.05 0.06 0.03 0.01 0.01 0.01 0.01 0.02 0.03 0.02 0.03 0.07 0.06 0.08 0.30 0.30 0.25 0.05 0.05
0.02 0.01 0.01 0.01 0.01 0.00 0.01 0.02 0.04 0.05 0.03 0.02 0.01 0.01 0.00 0.00 0.00 0.02 0.03 0.01 0.00 0.06 0.04 0.03 0.05 0.04 0.03 0.02 0.02 0.08 0.07 0.10 0.13 0.10 0.09 0.27 0.16 0.29 0.23 0.07 0.12 0.06
0.01 0.01 0.01 0.00 0.01 0.01 0.02 0.04 0.03 0.01 0.01 0.00 0.01 0.01 0.01 0.01 0.00 0.01 0.02 0.02 0.02 0.04 0.05 0.01 0.03 0.07 0.02 0.01 0.04 0.07 0.09 0.09 0.10 0.08 0.08 0.05 0.05 0.11 0.18 0.16 0.05 0.09